Weather in Okunevo

Russia / Kirov Oblast     57°19′53″N   49°21′37″E
temp.,
°C
wind,
m/s
gust,
m/s
humid.,
%
clouds,
%
prec.,
mm/h
press.,
hPa
HPBL,
m
14 may, fri
fri1400:00+18sse51465100 0.1 1021318
03:00+15sse388081 0.3 1021140
06:00+17sse387798 0.1 1021242
09:00+22sse5853100 0.1 1020676
12:00+25s6838100 0.0 10191304
15:00+26s684499 0.0 10191519
18:00+23ssw47611 0.0 1018232
21:00+18ssw478030 0.3 1018108
15 may, sat
sat1500:00+16wsw338841 0.0 101935
03:00+16sw1188100 0.0 101911
06:00+18se3583100 0.0 1019150
09:00+23sse5759100 0.0 1018541
12:00+26s6844100 0.0 1017955
15:00+27ssw6124294 0.0 10161547
18:00+24ssw613515 0.0 1015383
21:00+19s615635 0.0 1015301
16 may, sun
sun1600:00+17ssw413650 0.0 1015229
03:00+15ssw477158 0.0 1016109
06:00+18s496892 0.0 1015240
09:00+22ssw61050100 0.0 1015556
12:00+25sw6944100 0.0 10151099
15:00+26sw6104528 0.0 10141793
18:00+24sw4860100 0.0 1014216
21:00+17wsw35807 0.8 101473
17 may, mon
mon1700:00+15sw389210 0.8 1015155
03:00+14wsw369120 0.8 1016104
06:00+16wsw358098 0.0 1017177
09:00+21sw4560100 0.0 1017657
12:00+24wsw564799 0.0 10171352
15:00+25w4748100 0.0 10171689
18:00+22nnw246520 0.0 101698
21:00+17sse007731 1.1 101711
18 may, tue
tue1800:00+16se228596 2.3 101712
03:00+15sse118663 2.4 101711
06:00+18se358165 0.1 1017171
09:00+23se2265100 0.1 1017493
12:00+27ssw234411 0.0 10161116
15:00+28w232914 0.0 10162829
18:00+26nne224636 0.0 101515
21:00+21ese335311 0.0 101628